Regional Weather Roundup
Issued by NWS

Home | Current Version | Previous Version | Graphics & Text | Print | Product List | Glossary On
Versions: 1 2 3 4 5 6 7 8 9 10 11 12 13 14 15 16 17 18 19 20 21 22 23 24 25 26 27 28 29 30 31 32 33 34 35 36 37 38 39 40 41 42 43 44 45 46 47 48 49 50
023
ASUS43 KIND 270309
RWRIN

WEATHER ROUNDUP FOR INDIANA
NATIONAL WEATHER SERVICE INDIANAPOLIS IN
1000 PM EST SUN FEB 26 2017

NOTE: "FAIR" INDICATES FEW OR NO CLOUDS BELOW 12,000 FEET WITH NO
SIGNIFICANT WEATHER AND/OR OBSTRUCTIONS TO VISIBILITY.

* - STATION DOES NOT REPORT WEATHER SUCH AS PRECIPITATION OR FOG.

+ - STATION NOT QUALITY CONTROLLED BY THE NATIONAL WEATHER SERVICE.
    USE DATA WITH CAUTION...ESPECIALLY DEWPOINT AND RELATIVE
    HUMIDITY OBSERVATIONS.

INZ001>003-010>013-019-020-270400-
NORTHWEST INDIANA

CITY           SKY/WX    TMP DP  RH WIND       PRES   REMARKS
GARY /AIRPORT/ PTCLDY    41  21  45 SW8       30.06R
KNOX *+        FAIR      36   1  23 SW8       30.08R
LA PORTE +     FAIR      36  23  58 SW9       30.07R
MICHIGAN CITY+ MOCLDY    37  23  56 SW10G21   30.07R
MONTICELLO +   FAIR      35  22  58 SW8       30.09R WCI  29
RENSSELAER +   FAIR      34  23  64 S6        30.09R WCI  29
VALPARAISO     FAIR      38  23  55 SW10      30.07R

$$

LMZ046-743>745-270400-
SOUTHERN LAKE MICHIGAN

STATION/POSITION TIME  TEMP    WIND        PRES    WAVE
                       AIR SEA DIR/SP/G            HT
                 (UTC) (F)     (DEG/KT/KT) (MB)    (FT)
BURNS HARBOR     0240   42     220/ 17/ 20 1017.9R
MICHIGAN CITY    0240   41     190/ 17/ 20   N/A

$$

INZ004-005-014>016-021>024-270400-
NORTH CENTRAL INDIANA

CITY           SKY/WX    TMP DP  RH WIND       PRES   REMARKS
GOSHEN         FAIR      37  20  50 S15       30.07R
LOGANSPORT +   CLOUDY    36  28  75 S6        30.11R
PERU/GRISSOM   CLOUDY    38  25  58 SW8       30.09R
ROCHESTER +    FAIR      37  25  60 S7        30.10R
SOUTH BEND     FAIR      38  20  48 SW14      30.07R
WARSAW +       FAIR      37  19  48 SW5       30.09R

$$

INZ006>009-017-018-025>027-270400-
NORTHEAST INDIANA

CITY           SKY/WX    TMP DP  RH WIND       PRES   REMARKS
ANGOLA *+      CLEAR     37  21  52 SW13      30.06R
AUBURN +       FAIR      37  19  48 SW8       30.09R
FORT WAYNE     FAIR      33  22  63 SW10      30.11R WCI  25
HUNTINGTON +   MOCLDY    37  21  50 SW7       30.11R
KENDALLVILLE + FAIR      37  21  53 SW13G20   30.08R

$$

INZ028-029-035-036-043>045-051>053-270400-
WEST CENTRAL INDIANA

CITY           SKY/WX    TMP DP  RH WIND       PRES   REMARKS
LAFAYETTE      MOCLDY    38  22  52 SW7       30.11R
TERRE HAUTE    MOCLDY    41  22  46 S7        30.13R

$$

INZ030>032-037>040-046>048-054>057-064-065-270400-
CENTRAL INDIANA

CITY           SKY/WX    TMP DP  RH WIND       PRES   REMARKS
CP ATTERBURY + CLOUDY    41  18  38 CALM      30.15R
COLUMBUS       CLOUDY    41  19  42 SE5       30.15R
FISHERS *+     FAIR      36  23  60 CALM      30.13R
FRANKFORT +    CLOUDY    39  28  64 SW5       30.13R
GREENWOOD *+   CLOUDY    40  18  40 S5        30.14R
INDIANAPOLIS   CLOUDY    38  16  40 S7        30.13R
-EAGLE CREEK   FAIR      39  19  44 CALM      30.12R
KOKOMO +       FAIR      37  25  61 S10       30.12R
MARION +       CLOUDY    38  26  60 SW10      30.13R
MT COMFORT *+  FAIR      36  18  48 S5        30.13S
SHELBYVILLE    MOCLDY    41  17  38 S7        30.13R
ZIONSVILLE +   FAIR      35  23  61 S3        30.13R

$$

INZ033-034-041-042-049-050-058-059-270400-
EAST CENTRAL INDIANA

CITY           SKY/WX    TMP DP  RH WIND       PRES   REMARKS
MUNCIE         CLOUDY    42  18  37 SW5       30.13R

$$

INZ060-061-067>069-081>083-085>088-270400-
SOUTHWEST INDIANA

CITY           SKY/WX    TMP DP  RH WIND       PRES   REMARKS
EVANSVILLE     CLOUDY    47  24  40 CALM      30.15R
HUNTINGBURG *+ CLOUDY    45  19  36 CALM      30.16R
WASHINGTON +   CLOUDY    46  20  35 SW10G20   30.14S

$$

INZ062-063-066-070>080-084-089>092-270400-
SOUTH CENTRAL AND SOUTHEAST INDIANA

CITY           SKY/WX    TMP DP  RH WIND       PRES   REMARKS
BEDFORD +      CLOUDY    43  14  31 S3        30.14R
BLOOMINGTON    CLOUDY    43  16  33 S6        30.13R
MADISON *+     MOCLDY    41  18  38 CALM      30.18R
NORTH VERNON + MOCLDY    43  14  31 S6        30.15S
SEYMOUR +      CLOUDY    43  23  45 S3        30.15R

$$





USA.gov is the U.S. government's official web portal to all federal, state and local government web resources and services.